Wind_Speed
11 12 12 12 12 13 14 14 14 14 15 15 15 15 14 15 15 15 15 15 15 16 16 16 17 17 17 16 17 17 17 17 17 18 17 17 17 17 17 17 17 16 16 16
13 13 12 13 14 14 15 15 15 16 16 16 16 16 15 15 16 16 16 16 16 16 17 17 17 18 17 17 17 18 18 18 18 18 18 18 18 18 18 18 18 17 17 17
14 13 13 14 15 15 16 16 16 16 17 17 17 17 17 16 17 17 17 17 17 17 18 18 18 18 18 18 18 18 19 19 19 19 19 19 19 19 19 19 19 18 18 18
15 15 14 14 15 15 15 16 16 17 17 18 18 18 17 17 18 18 18 18 18 18 18 19 19 19 19 19 19 19 19 20 20 20 20 20 20 20 20 20 20 20 20 19
15 15 15 15 15 15 15 15 16 16 18 19 18 20 19 18 19 19 20 20 19 19 19 20 20 20 20 20 20 21 20 20 20 21 21 21 21 20 20 20 20 20 20 20
15 14 14 14 14 15 16 16 17 17 18 19 19 20 19 18 19 20 20 21 21 21 20 20 21 21 21 22 22 22 21 21 21 21 22 22 22 21 21 21 21 21 20 20
15 14 14 14 15 15 15 16 16 17 18 20 19 20 20 19 19 20 20 20 21 21 21 21 21 22 23 23 23 23 23 22 22 22 22 22 22 22 22 21 21 21 21 20
14 14 14 15 15 16 15 16 16 17 18 19 20 20 20 19 19 20 20 20 20 21 20 20 21 22 23 24 24 25 25 24 23 23 23 22 22 22 22 22 22 22 22 21
15 15 15 15 15 16 16 16 16 18 18 19 21 20 20 19 19 20 20 21 21 21 21 22 22 23 23 24 24 25 25 25 25 24 24 24 23 23 23 23 23 23 22 22
16 17 16 16 15 15 16 16 17 18 19 20 21 21 20 20 20 21 21 22 22 22 22 22 22 23 24 24 24 25 25 25 26 25 25 25 24 23 23 23 23 23 22 22
16 17 17 17 16 16 16 17 18 19 20 20 21 21 20 20 20 21 21 22 23 23 22 22 22 23 24 24 24 24 25 25 26 26 26 25 25 24 24 24 24 24 23 23
17 17 18 18 18 18 18 18 18 19 20 20 21 21 20 20 20 21 21 22 22 22 21 21 21 22 23 23 23 24 24 25 26 26 26 25 25 24 24 25 25 25 24 24
18 18 19 19 19 19 19 19 20 20 21 21 21 22 20 20 20 20 21 22 22 22 22 22 22 22 22 22 23 24 25 26 26 26 25 26 26 26 25 25 25 25 25 25
19 19 19 20 20 20 21 20 20 21 21 21 21 22 20 21 20 20 21 22 22 22 22 22 22 22 22 22 23 24 24 25 26 26 26 27 27 28 28 27 27 26 26 26
19 20 21 21 21 21 22 21 20 21 21 22 22 22 22 22 22 21 22 22 22 22 22 22 22 22 22 22 23 24 25 25 26 26 27 28 28 28 29 29 29 28 28 27
20 21 21 21 21 22 22 22 22 22 22 22 23 23 23 23 23 22 22 22 22 22 22 22 23 23 22 22 23 24 24 24 25 25 26 26 27 28 29 29 29 29 29 29
20 21 22 22 22 22 21 20 21 21 22 23 23 23 24 24 24 23 22 22 22 22 22 23 24 23 24 25 24 25 24 24 24 24 24 25 26 27 28 28 28 28 28 29
21 21 22 22 22 23 21 21 22 22 22 23 24 24 25 25 24 24 23 23 23 23 23 23 24 24 25 26 26 25 24 25 25 25 26 27 27 27 28 28 28 28 28 28
21 22 22 22 23 23 22 22 22 22 23 23 24 24 25 25 24 24 24 23 23 24 24 24 24 25 25 25 25 25 25 25 25 26 26 26 27 27 27 28 28 28 28 28
22 22 22 23 24 23 23 23 22 23 23 23 24 24 24 24 24 24 24 24 24 24 24 24 24 24 25 25 25 25 25 26 26 26 26 26 26 27 28 28 28 28 28 29
22 22 23 23 24 23 22 22 22 23 23 24 24 25 25 24 24 24 23 23 23 24 24 24 24 25 25 25 25 25 26 26 26 26 26 26 26 27 28 29 29 29 29 29
23 23 24 25 25 24 23 23 23 24 24 24 25 25 25 24 24 23 23 23 23 24 24 24 24 24 25 25 25 25 26 26 26 26 25 25 26 27 28 28 29 29 29 29
24 24 25 25 25 24 25 24 24 24 24 24 24 24 24 24 23 23 22 23 24 24 24 24 24 25 25 25 25 25 25 26 26 26 26 26 26 27 28 28 28 28 29 29
25 25 26 26 25 26 25 25 24 24 24 23 23 23 23 23 23 24 23 23 24 24 24 25 25 25 25 25 26 25 25 25 25 26 26 27 27 27 27 27 27 28 28 28
26 26 27 26 25 25 25 24 24 24 24 23 23 23 23 24 23 23 24 24 24 24 24 25 25 26 25 25 25 25 25 25 25 25 25 25 25 25 26 26 26 27 28 28
26 27 27 26 25 25 24 24 24 24 24 23 23 23 23 24 24 24 24 24 24 24 24 25 26 26 26 26 26 26 26 26 27 26 26 26 26 25 25 25 26 27 27 28
Wind_Direction
252 254 255 256 259 261 263 266 267 268 268 267 267 267 266 264 264 264 264 266 266 267 268 267 267 268 269 271 271 272 273 273 272 273 272 270 270 270 270 270 272 273 274 275
258 259 258 255 260 263 266 268 269 270 268 267 267 267 266 265 265 265 266 267 267 269 269 268 267 267 268 269 269 271 272 271 271 272 271 270 271 271 271 272 273 273 274 274
264 263 258 259 263 266 267 269 269 270 270 268 268 266 266 266 266 265 266 267 268 269 268 267 266 267 268 270 270 271 272 271 271 271 271 271 271 271 271 273 272 272 272 272
264 265 263 264 266 269 271 272 272 271 270 269 270 269 267 267 267 266 266 267 268 269 269 269 267 269 269 269 270 271 270 270 270 269 271 272 272 272 273 274 272 272 271 270
268 269 268 269 270 273 273 275 275 274 273 272 272 271 268 267 267 267 267 269 268 269 270 271 269 270 270 270 270 270 269 270 270 270 271 272 272 272 272 272 272 272 271 269
270 269 270 271 273 274 275 276 278 278 277 274 274 273 272 268 269 268 267 268 268 270 270 269 269 271 270 270 270 270 270 269 269 270 271 271 272 272 272 272 272 271 270 269
270 271 272 274 276 276 278 280 283 283 280 278 276 274 274 272 271 270 269 270 270 271 270 268 268 270 270 270 269 268 267 267 268 269 269 270 271 272 273 273 272 271 271 271
272 272 273 274 274 275 277 279 279 280 282 283 279 277 278 276 273 271 272 271 272 271 270 271 270 269 269 270 269 267 266 266 267 267 267 268 271 272 273 273 272 271 271 271
272 273 273 274 275 274 275 275 277 279 281 282 282 281 279 277 275 274 272 272 272 272 272 272 272 270 269 270 269 269 268 267 267 267 267 268 270 272 272 271 272 272 272 272
271 274 275 277 277 275 276 276 278 279 281 283 284 283 283 282 279 277 275 273 273 271 271 272 273 272 270 270 269 270 269 267 267 268 268 269 269 270 270 270 271 273 273 274
273 274 277 278 278 278 277 277 277 278 280 283 284 284 284 283 281 280 279 278 277 275 274 273 274 273 270 269 269 270 268 266 266 267 268 268 269 268 267 267 268 270 273 275
273 275 276 279 279 277 276 276 275 277 280 280 281 282 284 282 280 280 280 280 279 278 278 275 276 275 273 271 270 269 268 267 267 267 267 268 267 266 266 267 267 269 272 274
275 275 278 280 279 277 275 274 273 273 275 277 280 282 283 283 280 280 282 282 281 280 280 278 277 277 277 274 273 271 269 268 267 266 266 265 265 264 265 267 268 270 271 272
276 276 276 276 277 276 274 274 273 273 274 277 279 280 282 283 283 283 284 284 283 282 282 279 276 278 278 276 274 273 271 270 268 267 265 264 264 263 264 266 268 270 271 271
276 277 276 275 275 274 272 273 274 273 273 276 279 281 282 283 283 283 284 284 283 282 282 279 279 278 279 277 276 275 273 272 270 268 266 265 265 264 265 265 266 268 269 269
276 277 276 275 275 274 274 274 276 275 275 277 278 280 283 284 284 284 283 283 282 281 281 280 280 279 280 280 278 277 275 273 272 271 268 266 267 266 266 267 267 266 266 267
274 276 275 276 275 275 276 278 279 277 276 277 279 282 284 284 283 282 282 282 281 280 281 282 282 281 281 281 282 278 277 275 273 271 270 270 269 269 268 268 268 266 266 266
273 273 274 276 275 276 280 278 277 278 276 278 279 281 282 283 282 281 281 281 280 281 282 284 284 283 284 284 283 280 277 274 273 274 273 272 271 271 270 269 269 267 267 267
272 272 273 274 275 276 276 277 278 278 278 278 280 282 283 282 281 280 280 278 278 280 281 283 285 285 285 286 284 282 279 278 277 277 276 274 272 270 269 270 271 270 269 267
271 271 272 273 275 276 278 278 278 279 279 279 281 282 282 283 281 280 281 279 278 280 282 285 285 286 287 287 287 285 282 280 278 277 276 275 273 271 269 269 270 271 271 270
269 270 272 273 274 276 279 282 281 280 280 280 281 281 282 283 282 281 282 281 280 282 284 285 286 285 287 288 287 286 283 280 277 275 275 273 273 273 271 269 269 270 270 270
269 270 270 272 273 276 279 281 281 280 280 282 281 281 280 282 282 280 281 280 281 283 286 287 287 288 287 288 287 285 282 280 277 275 274 274 274 274 273 271 268 267 268 269
268 270 270 271 273 276 277 280 282 281 283 284 283 282 281 281 282 281 280 280 281 284 286 289 289 289 288 289 288 285 282 279 278 277 276 275 275 275 274 272 270 269 268 269
269 269 271 272 273 274 276 278 280 280 282 284 283 282 282 282 282 281 279 281 283 284 285 287 288 289 289 288 289 286 281 280 279 277 277 276 275 276 274 272 270 270 269 269
270 270 271 273 273 272 273 275 277 279 280 282 282 281 281 283 282 282 281 282 285 286 286 287 287 287 288 289 289 289 286 283 280 278 278 277 278 278 276 274 271 270 269 269
269 269 270 272 271 272 273 274 276 278 280 282 282 282 283 283 282 283 283 283 284 286 286 287 287 288 288 288 288 289 287 284 282 282 281 279 279 280 278 276 273 272 270 269
Height
5847 5849 5849 5849 5850 5850 5850 5850 5850 5850 5849 5849 5850 5850 5850 5850 5850 5850 5850 5850 5849 5849 5849 5849 5849 5848 5848 5847 5847 5847 5846 5846 5845 5845 5845 5844 5843 5843 5842 5842 5841 5840 5840 5839
5845 5845 5845 5845 5845 5846 5846 5846 5846 5846 5845 5845 5845 5846 5846 5846 5846 5846 5846 5846 5845 5845 5845 5845 5844 5844 5844 5843 5843 5842 5842 5842 5841 5841 5840 5840 5839 5839 5838 5837 5837 5836 5836 5835
5841 5842 5841 5841 5841 5841 5841 5841 5841 5841 5841 5840 5841 5842 5842 5841 5841 5841 5841 5841 5841 5841 5840 5840 5840 5840 5839 5839 5839 5838 5837 5837 5836 5836 5836 5835 5835 5834 5834 5833 5832 5832 5831 5831
5837 5837 5838 5837 5837 5837 5837 5837 5837 5836 5836 5836 5837 5836 5837 5836 5836 5836 5837 5836 5836 5836 5835 5835 5835 5835 5834 5834 5833 5833 5832 5832 5832 5831 5831 5830 5830 5829 5829 5828 5828 5827 5826 5826
5833 5833 5833 5833 5833 5833 5833 5833 5832 5832 5831 5831 5831 5831 5832 5832 5831 5831 5831 5831 5831 5831 5830 5830 5830 5829 5829 5828 5828 5827 5827 5826 5826 5826 5825 5825 5825 5824 5824 5823 5822 5822 5821 5821
5829 5829 5829 5829 5829 5828 5828 5828 5827 5827 5826 5827 5827 5826 5826 5827 5826 5826 5826 5825 5825 5825 5825 5824 5824 5824 5823 5823 5822 5822 5821 5821 5820 5820 5820 5819 5819 5818 5818 5817 5817 5816 5816 5815
5825 5825 5824 5824 5824 5824 5824 5824 5824 5822 5822 5822 5821 5820 5821 5821 5820 5820 5820 5820 5819 5819 5819 5818 5818 5818 5817 5816 5816 5815 5815 5814 5814 5814 5814 5813 5813 5813 5812 5812 5811 5811 5810 5810
5821 5821 5821 5820 5820 5820 5819 5820 5820 5819 5818 5817 5815 5814 5816 5815 5815 5814 5814 5813 5813 5812 5812 5812 5812 5811 5810 5809 5809 5808 5808 5808 5808 5807 5807 5807 5807 5807 5807 5806 5806 5805 5805 5804
5816 5817 5816 5815 5815 5815 5814 5814 5814 5814 5812 5811 5810 5809 5809 5809 5808 5808 5807 5807 5806 5806 5806 5805 5805 5804 5803 5802 5801 5801 5800 5800 5801 5801 5801 5801 5801 5801 5801 5800 5800 5799 5799 5798
5811 5811 5811 5811 5810 5810 5810 5809 5809 5807 5806 5805 5805 5804 5804 5803 5802 5801 5801 5800 5800 5800 5799 5798 5798 5797 5796 5795 5794 5793 5792 5793 5793 5793 5793 5794 5794 5794 5794 5794 5794 5793 5793 5792
5806 5806 5806 5806 5805 5805 5805 5804 5803 5802 5801 5800 5799 5801 5798 5797 5796 5795 5794 5794 5793 5793 5792 5792 5791 5789 5788 5787 5786 5786 5786 5786 5786 5786 5786 5786 5787 5787 5787 5787 5787 5786 5786 5786
5801 5801 5800 5801 5800 5799 5798 5798 5797 5797 5796 5794 5793 5796 5793 5792 5790 5789 5788 5787 5787 5786 5786 5784 5783 5782 5781 5780 5779 5779 5779 5779 5778 5778 5778 5779 5780 5780 5780 5780 5780 5779 5779 5778
5795 5795 5795 5795 5796 5794 5792 5792 5791 5790 5789 5788 5788 5790 5787 5785 5784 5783 5782 5781 5780 5780 5779 5778 5776 5775 5774 5773 5773 5772 5772 5771 5771 5771 5771 5772 5772 5772 5772 5772 5772 5772 5772 5771
5789 5789 5790 5790 5788 5787 5786 5786 5785 5784 5783 5782 5782 5782 5781 5779 5779 5778 5776 5775 5774 5773 5772 5771 5770 5768 5767 5766 5766 5765 5764 5764 5763 5763 5764 5764 5764 5764 5764 5765 5764 5764 5764 5763
5783 5783 5783 5782 5781 5780 5780 5779 5779 5778 5777 5776 5776 5775 5775 5773 5772 5771 5770 5768 5767 5766 5765 5764 5763 5762 5760 5759 5758 5757 5756 5756 5755 5755 5755 5755 5756 5756 5756 5756 5756 5756 5755 5755
5777 5777 5776 5776 5775 5774 5773 5773 5772 5771 5771 5770 5769 5769 5768 5766 5765 5764 5763 5762 5760 5759 5758 5757 5756 5755 5754 5753 5751 5750 5749 5748 5747 5746 5746 5746 5747 5747 5746 5746 5746 5746 5746 5746
5770 5770 5769 5769 5768 5767 5768 5768 5766 5765 5764 5764 5762 5763 5760 5759 5758 5757 5756 5755 5753 5752 5751 5750 5749 5747 5746 5745 5744 5743 5741 5740 5739 5739 5738 5738 5738 5738 5738 5737 5737 5737 5737 5737
5764 5763 5762 5762 5762 5761 5764 5761 5759 5758 5757 5756 5755 5754 5753 5751 5750 5749 5748 5747 5746 5745 5744 5743 5741 5740 5738 5737 5736 5734 5733 5732 5732 5731 5730 5729 5729 5729 5728 5728 5728 5728 5727 5727
5757 5756 5755 5755 5754 5754 5755 5754 5752 5751 5750 5750 5748 5747 5745 5743 5742 5742 5741 5739 5738 5737 5736 5735 5733 5732 5731 5729 5727 5726 5725 5724 5723 5722 5721 5720 5720 5719 5719 5719 5719 5718 5718 5718
5750 5749 5749 5748 5747 5747 5749 5747 5745 5744 5743 5743 5741 5739 5738 5736 5735 5735 5733 5732 5731 5730 5729 5727 5725 5724 5723 5721 5719 5718 5716 5715 5714 5713 5712 5711 5710 5710 5710 5710 5709 5709 5709 5709
5743 5742 5742 5741 5739 5740 5741 5739 5738 5738 5737 5735 5733 5732 5730 5729 5728 5727 5726 5724 5723 5722 5720 5719 5717 5716 5714 5713 5711 5710 5708 5706 5705 5704 5703 5702 5702 5701 5701 5700 5700 5700 5700 5699
5736 5735 5735 5734 5733 5735 5733 5731 5731 5730 5728 5726 5725 5723 5722 5721 5720 5719 5718 5716 5715 5714 5712 5711 5709 5708 5706 5704 5703 5701 5699 5698 5697 5696 5695 5694 5693 5692 5691 5691 5690 5690 5690 5690
5728 5728 5727 5727 5728 5726 5725 5724 5722 5721 5720 5718 5717 5716 5715 5713 5712 5711 5710 5709 5707 5706 5705 5703 5701 5700 5698 5696 5694 5692 5691 5689 5688 5687 5686 5685 5684 5683 5682 5681 5681 5680 5680 5680
5720 5719 5718 5718 5718 5718 5716 5715 5714 5713 5712 5710 5709 5708 5707 5706 5704 5703 5702 5701 5700 5698 5697 5695 5693 5692 5690 5688 5686 5684 5682 5681 5679 5678 5677 5676 5675 5674 5673 5672 5671 5671 5671 5671
5711 5710 5709 5709 5709 5708 5708 5707 5706 5705 5704 5703 5702 5700 5699 5698 5697 5695 5694 5693 5692 5690 5689 5687 5685 5684 5682 5679 5677 5675 5673 5672 5670 5669 5668 5667 5666 5665 5664 5663 5663 5663 5662 5662
5703 5702 5701 5701 5701 5700 5700 5699 5698 5697 5696 5695 5694 5693 5691 5689 5688 5687 5686 5685 5684 5682 5681 5679 5677 5675 5673 5671 5669 5667 5665 5663 5662 5660 5659 5658 5657 5656 5655 5654 5654 5653 5653 5653